Regional Weather Roundup
Issued by NWS

Home | Current Version | Previous Version | Graphics & Text | Print | Product List | Glossary On
Versions: 1 2 3 4 5 6 7 8 9 10 11 12 13 14 15 16 17 18 19 20 21 22 23 24 25 26 27 28 29 30 31 32 33 34 35 36 37 38 39 40 41 42 43 44 45 46 47 48 49 50
000
ASUS43 KLMK 210010
RWRKY
KENTUCKY REGIONAL WEATHER ROUNDUP
NATIONAL WEATHER SERVICE LOUISVILLE KY
700 PM EST SAT JAN 20 2018

NOTE "FAIR" INDICATES FEW OR NO CLOUDS BELOW 12,000 FEET
WITH NO SIGNIFICANT WEATHER AND/OR OBSTRUCTIONS TO VISIBILITY.

KYZ001>023-026-027-061>063-070>075-210100-
WESTERN AND SOUTH CENTRAL KENTUCKY

CITY           SKY/WX    TMP DP  RH WIND       PRES   REMARKS
PADUCAH        CLOUDY    45  35  68 S7        30.07S
HENDERSON      CLOUDY    42  37  82 S6        30.09F
OWENSBORO      CLOUDY    43  35  73 SE5       30.12S
HOPKINSVILLE   CLOUDY    49  40  71 S7        30.12S
BOWLING GREEN  CLOUDY    53  43  68 SE3       30.15R
GLASGOW        CLOUDY    46  38  74 E3        30.15S
$$

KYZ024-025-028>034-038-045-046-053-210100-
NORTH CENTRAL KENTUCKY

CITY           SKY/WX    TMP DP  RH WIND       PRES   REMARKS
LOUISVILLE/SDF CLOUDY    50  42  74 SW12      30.13R
LOUISVILLE/LOU CLOUDY    50  44  80 S10G21    30.14R
FORT KNOX      CLOUDY    46  40  81 SW5       30.12S
$$

KYZ035>037-039>044-047>052-055>060-089>105-210100-
NORTHEAST KENTUCKY

CITY           SKY/WX    TMP DP  RH WIND       PRES   REMARKS
LEXINGTON      CLOUDY    49  42  77 SW13      30.15R
COVINGTON      CLOUDY    45  36  70 S9        30.09R
FRANKFORT      CLOUDY    48  38  68 S7        30.13R
$$

KYZ054-064>069-076>088-106>120-210100-
SOUTHEAST KENTUCKY

CITY           SKY/WX    TMP DP  RH WIND       PRES   REMARKS
JACKSON        CLOUDY    52  40  63 VRB5      30.17R
LONDON         CLOUDY    51  36  56 CALM      30.18R
SOMERSET       CLOUDY    50  37  62 CALM      30.20R
MIDDLESBORO    CLOUDY    42  34  74 CALM      30.22R
MONTICELLO     CLOUDY    46  37  71 W6        30.19S
$$





USA.gov is the U.S. government's official web portal to all federal, state and local government web resources and services.